owner,sensor,date,latitude,longitude,vertical_datum,direction_of_sea_water_velocity,sea_water_speed,upward_sea_water_velocity,qcFlag 
TABS,ioos:station:TABS:X:1,2017-08-01T00:00:00Z,27.0660,-96.3383,2.0,262.7024453,33.85419324,-99999.0,'11111222,11111222,99999999' 
TABS,ioos:station:TABS:X:1,2017-08-01T00:30:00Z,27.0660,-96.3383,2.0,263.0020298,32.34089671,-99999.0,'11111222,11111222,99999999' 
TABS,ioos:station:TABS:X:1,2017-08-01T01:00:00Z,27.0660,-96.3383,2.0,265.5682369,26.92047548,-99999.0,'11111222,11111222,99999999' 
TABS,ioos:station:TABS:X:1,2017-08-01T01:30:00Z,27.0660,-96.3383,2.0,262.9142853,23.26768145,-99999.0,'11111222,11111222,99999999' 
TABS,ioos:station:TABS:X:1,2017-08-01T02:00:00Z,27.0660,-96.3383,2.0,262.5113789,19.56687251,-99999.0,'11111222,11111222,99999999' 
TABS,ioos:station:TABS:X:1,2017-08-01T02:30:00Z,27.0660,-96.3383,2.0,261.492625,15.48031653,-99999.0,'11111222,11111222,99999999' 
TABS,ioos:station:TABS:X:1,2017-08-01T03:00:00Z,27.0660,-96.3383,2.0,249.7025644,14.50037586,-99999.0,'11111222,11111222,99999999' 
TABS,ioos:station:TABS:X:1,2017-08-01T03:30:00Z,27.0660,-96.3383,2.0,230.5481376,4.973047355,-99999.0,'11133222,11111222,99999999' 
TABS,ioos:station:TABS:X:1,2017-08-01T04:00:00Z,27.0660,-96.3383,2.0,217.9347359,7.531301348,-99999.0,'11133222,11111222,99999999' 
TABS,ioos:station:TABS:X:1,2017-08-01T04:30:00Z,27.0660,-96.3383,2.0,224.931718,5.960914359,-99999.0,'11133222,11111222,99999999' 
TABS,ioos:station:TABS:X:1,2017-08-01T05:00:00Z,27.0660,-96.3383,2.0,227.1867155,5.002889165,-99999.0,'11133222,11111222,99999999' 
TABS,ioos:station:TABS:X:1,2017-08-01T05:30:00Z,27.0660,-96.3383,2.0,214.2508352,9.630057113,-99999.0,'11133222,11111222,99999999' 
TABS,ioos:station:TABS:X:1,2017-08-01T06:00:00Z,27.0660,-96.3383,2.0,230.9104111,6.042532582,-99999.0,'11133222,11111222,99999999' 
TABS,ioos:station:TABS:X:1,2017-08-01T06:30:00Z,27.0660,-96.3383,2.0,219.8575065,7.021545414,-99999.0,'11133222,11111222,99999999' 
TABS,ioos:station:TABS:X:1,2017-08-01T07:00:00Z,27.0660,-96.3383,2.0,190.6715622,4.050049382,-99999.0,'11133222,11111222,99999999' 
TABS,ioos:station:TABS:X:1,2017-08-01T07:30:00Z,27.0660,-96.3383,2.0,172.951286,4.64510495,-99999.0,'11133222,11111222,99999999' 
TABS,ioos:station:TABS:X:1,2017-08-01T08:00:00Z,27.0660,-96.3383,2.0,176.1585616,7.015760828,-99999.0,'11133222,11111222,99999999' 
TABS,ioos:station:TABS:X:1,2017-08-01T08:30:00Z,27.0660,-96.3383,2.0,175.5746747,9.979749496,-99999.0,'11133222,11111222,99999999' 
TABS,ioos:station:TABS:X:1,2017-08-01T09:00:00Z,27.0660,-96.3383,2.0,174.321575,12.33050283,-99999.0,'11111222,11111222,99999999' 
TABS,ioos:station:TABS:X:1,2017-08-01T09:30:00Z,27.0660,-96.3383,2.0,172.5820664,16.26612738,-99999.0,'11111222,11111222,99999999' 
TABS,ioos:station:TABS:X:1,2017-08-01T10:00:00Z,27.0660,-96.3383,2.0,157.9148779,24.38952439,-99999.0,'11111222,11111222,99999999' 
TABS,ioos:station:TABS:X:1,2017-08-01T10:30:00Z,27.0660,-96.3383,2.0,166.4370858,24.9456409,-99999.0,'11111222,11111222,99999999' 
TABS,ioos:station:TABS:X:1,2017-08-01T11:00:00Z,27.0660,-96.3383,2.0,168.0516904,27.29125318,-99999.0,'11111222,11111222,99999999' 
TABS,ioos:station:TABS:X:1,2017-08-01T11:30:00Z,27.0660,-96.3383,2.0,167.2293598,28.54613284,-99999.0,'11111222,11111222,99999999' 
TABS,ioos:station:TABS:X:1,2017-08-01T12:00:00Z,27.0660,-96.3383,2.0,175.3897457,30.98022757,-99999.0,'11111222,11111222,99999999' 
TABS,ioos:station:TABS:X:1,2017-08-01T12:30:00Z,27.0660,-96.3383,2.0,177.9726526,27.98751507,-99999.0,'11111222,11111222,99999999' 
TABS,ioos:station:TABS:X:1,2017-08-01T13:00:00Z,27.0660,-96.3383,2.0,192.3907765,26.60985156,-99999.0,'11111222,11111222,99999999' 
TABS,ioos:station:TABS:X:1,2017-08-01T13:30:00Z,27.0660,-96.3383,2.0,194.5117972,26.5779702,-99999.0,'11111222,11111222,99999999' 
TABS,ioos:station:TABS:X:1,2017-08-01T14:00:00Z,27.0660,-96.3383,2.0,194.4974247,26.80348112,-99999.0,'11111222,11111222,99999999' 
TABS,ioos:station:TABS:X:1,2017-08-01T14:30:00Z,27.0660,-96.3383,2.0,191.6936387,25.75454911,-99999.0,'11111222,11111222,99999999' 
TABS,ioos:station:TABS:X:1,2017-08-01T15:00:00Z,27.0660,-96.3383,2.0,190.3966948,25.60032812,-99999.0,'11111222,11111222,99999999' 
TABS,ioos:station:TABS:X:1,2017-08-01T15:30:00Z,27.0660,-96.3383,2.0,190.550192,27.96273413,-99999.0,'11111222,11111222,99999999' 
TABS,ioos:station:TABS:X:1,2017-08-01T16:00:00Z,27.0660,-96.3383,2.0,191.0068139,26.71139083,-99999.0,'11111222,11111222,99999999' 
TABS,ioos:station:TABS:X:1,2017-08-01T16:30:00Z,27.0660,-96.3383,2.0,188.1579177,28.89238654,-99999.0,'11111222,11111222,99999999' 
TABS,ioos:station:TABS:X:1,2017-08-01T17:00:00Z,27.0660,-96.3383,2.0,195.8026432,27.61367958,-99999.0,'11111222,11111222,99999999' 
TABS,ioos:station:TABS:X:1,2017-08-01T17:30:00Z,27.0660,-96.3383,2.0,191.5774694,26.85643684,-99999.0,'11111222,11111222,99999999' 
TABS,ioos:station:TABS:X:1,2017-08-01T18:00:00Z,27.0660,-96.3383,2.0,190.6531151,30.29212604,-99999.0,'11111222,11111222,99999999' 
TABS,ioos:station:TABS:X:1,2017-08-01T18:30:00Z,27.0660,-96.3383,2.0,189.0620744,31.55386664,-99999.0,'11111222,11111222,99999999' 
TABS,ioos:station:TABS:X:1,2017-08-01T19:00:00Z,27.0660,-96.3383,2.0,193.568397,32.09580814,-99999.0,'11111222,11111222,99999999' 
TABS,ioos:station:TABS:X:1,2017-08-01T19:30:00Z,27.0660,-96.3383,2.0,194.0193142,33.31226951,-99999.0,'11111222,11111222,99999999' 
TABS,ioos:station:TABS:X:1,2017-08-01T20:00:00Z,27.0660,-96.3383,2.0,198.1041367,33.43531815,-99999.0,'11111222,11111222,99999999' 
TABS,ioos:station:TABS:X:1,2017-08-01T20:30:00Z,27.0660,-96.3383,2.0,209.7909585,36.79243536,-99999.0,'11111222,11111222,99999999' 
TABS,ioos:station:TABS:X:1,2017-08-01T21:00:00Z,27.0660,-96.3383,2.0,217.8706696,37.54773096,-99999.0,'11111222,11111222,99999999' 
TABS,ioos:station:TABS:X:1,2017-08-01T21:30:00Z,27.0660,-96.3383,2.0,221.7956386,33.39936526,-99999.0,'11111222,11111222,99999999' 
TABS,ioos:station:TABS:X:1,2017-08-01T22:00:00Z,27.0660,-96.3383,2.0,227.3784041,32.71066187,-99999.0,'11111222,11111222,99999999' 
TABS,ioos:station:TABS:X:1,2017-08-01T22:30:00Z,27.0660,-96.3383,2.0,227.2439398,32.14144365,-99999.0,'11111222,11111222,99999999' 
TABS,ioos:station:TABS:X:1,2017-08-01T23:00:00Z,27.0660,-96.3383,2.0,229.3041432,30.99506574,-99999.0,'11111222,11111222,99999999' 
TABS,ioos:station:TABS:X:1,2017-08-01T23:30:00Z,27.0660,-96.3383,2.0,223.0187828,32.73031928,-99999.0,'11111222,11111222,99999999' 
TABS,ioos:station:TABS:X:1,2017-08-02T00:00:00Z,27.0660,-96.3383,2.0,228.5528907,33.8860576,-99999.0,'11111222,11111222,99999999' 
TABS,ioos:station:TABS:X:1,2017-08-02T00:30:00Z,27.0660,-96.3383,2.0,227.7084262,32.91724472,-99999.0,'11111222,11111222,99999999' 
TABS,ioos:station:TABS:X:1,2017-08-02T01:00:00Z,27.0660,-96.3383,2.0,223.2917755,31.79150201,-99999.0,'11111222,11111222,99999999' 
TABS,ioos:station:TABS:X:1,2017-08-02T01:30:00Z,27.0660,-96.3383,2.0,223.6953155,30.44176408,-99999.0,'11111222,11111222,99999999' 
TABS,ioos:station:TABS:X:1,2017-08-02T02:00:00Z,27.0660,-96.3383,2.0,225.6588444,30.11767089,-99999.0,'11111222,11111222,99999999' 
TABS,ioos:station:TABS:X:1,2017-08-02T02:30:00Z,27.0660,-96.3383,2.0,226.5470267,26.97181677,-99999.0,'11111222,11111222,99999999' 
TABS,ioos:station:TABS:X:1,2017-08-02T03:00:00Z,27.0660,-96.3383,2.0,233.8461973,26.3920632,-99999.0,'11111222,11111222,99999999' 
TABS,ioos:station:TABS:X:1,2017-08-02T03:30:00Z,27.0660,-96.3383,2.0,237.2659989,21.93312791,-99999.0,'11111222,11111222,99999999' 
TABS,ioos:station:TABS:X:1,2017-08-02T04:00:00Z,27.0660,-96.3383,2.0,229.764841,22.04600871,-99999.0,'11111222,11111222,99999999' 
TABS,ioos:station:TABS:X:1,2017-08-02T04:30:00Z,27.0660,-96.3383,2.0,235.9368683,21.3175796,-99999.0,'11111222,11111222,99999999' 
TABS,ioos:station:TABS:X:1,2017-08-02T05:00:00Z,27.0660,-96.3383,2.0,232.3321686,16.95364268,-99999.0,'11111222,11111222,99999999' 
TABS,ioos:station:TABS:X:1,2017-08-02T05:30:00Z,27.0660,-96.3383,2.0,235.0402414,11.51840267,-99999.0,'11111222,11111222,99999999' 
TABS,ioos:station:TABS:X:1,2017-08-02T06:00:00Z,27.0660,-96.3383,2.0,224.092705,10.72108203,-99999.0,'11111222,11111222,99999999' 
TABS,ioos:station:TABS:X:1,2017-08-02T06:30:00Z,27.0660,-96.3383,2.0,214.4967059,12.80097653,-99999.0,'11111222,11111222,99999999' 
TABS,ioos:station:TABS:X:1,2017-08-02T07:00:00Z,27.0660,-96.3383,2.0,216.485197,18.48241597,-99999.0,'11111222,11111222,99999999' 
TABS,ioos:station:TABS:X:1,2017-08-02T07:30:00Z,27.0660,-96.3383,2.0,211.7921681,21.10682354,-99999.0,'11111222,11111222,99999999' 
TABS,ioos:station:TABS:X:1,2017-08-02T08:00:00Z,27.0660,-96.3383,2.0,216.893739,14.24200126,-99999.0,'11111222,11111222,99999999' 
TABS,ioos:station:TABS:X:1,2017-08-02T08:30:00Z,27.0660,-96.3383,2.0,211.4327877,15.49370195,-99999.0,'11111222,11111222,99999999' 
TABS,ioos:station:TABS:X:1,2017-08-02T09:00:00Z,27.0660,-96.3383,2.0,211.4456492,11.6160105,-99999.0,'11111222,11111222,99999999' 
TABS,ioos:station:TABS:X:1,2017-08-02T09:30:00Z,27.0660,-96.3383,2.0,207.0627922,11.31940369,-99999.0,'11111222,11111222,99999999' 
TABS,ioos:station:TABS:X:1,2017-08-02T10:00:00Z,27.0660,-96.3383,2.0,210.404366,10.01770932,-99999.0,'11111222,11111222,99999999' 
TABS,ioos:station:TABS:X:1,2017-08-02T10:30:00Z,27.0660,-96.3383,2.0,179.0244203,11.16161727,-99999.0,'11111222,11111222,99999999' 
TABS,ioos:station:TABS:X:1,2017-08-02T11:00:00Z,27.0660,-96.3383,2.0,182.4076491,15.23345004,-99999.0,'11111222,11111222,99999999' 
TABS,ioos:station:TABS:X:1,2017-08-02T11:30:00Z,27.0660,-96.3383,2.0,177.6839482,19.05556349,-99999.0,'11111222,11111222,99999999' 
TABS,ioos:station:TABS:X:1,2017-08-02T12:00:00Z,27.0660,-96.3383,2.0,183.3046317,14.74452102,-99999.0,'11111222,11111222,99999999' 
TABS,ioos:station:TABS:X:1,2017-08-02T12:30:00Z,27.0660,-96.3383,2.0,181.1271076,16.77324656,-99999.0,'11111222,11111222,99999999' 
TABS,ioos:station:TABS:X:1,2017-08-02T13:00:00Z,27.0660,-96.3383,2.0,177.5465329,21.25948494,-99999.0,'11111222,11111222,99999999' 
TABS,ioos:station:TABS:X:1,2017-08-02T13:30:00Z,27.0660,-96.3383,2.0,177.1739616,21.90663826,-99999.0,'11111222,11111222,99999999' 
TABS,ioos:station:TABS:X:1,2017-08-02T14:00:00Z,27.0660,-96.3383,2.0,170.7587419,20.86074304,-99999.0,'11111222,11111222,99999999' 
TABS,ioos:station:TABS:X:1,2017-08-02T14:30:00Z,27.0660,-96.3383,2.0,167.3091336,20.3470735,-99999.0,'11111222,11111222,99999999' 
TABS,ioos:station:TABS:X:1,2017-08-02T15:00:00Z,27.0660,-96.3383,2.0,167.7726908,23.27804545,-99999.0,'11111222,11111222,99999999' 
TABS,ioos:station:TABS:X:1,2017-08-02T15:30:00Z,27.0660,-96.3383,2.0,165.4955,18.40664282,-99999.0,'11111222,11111222,99999999' 
TABS,ioos:station:TABS:X:1,2017-08-02T16:00:00Z,27.0660,-96.3383,2.0,165.9406538,24.24628838,-99999.0,'11111222,11111222,99999999' 
TABS,ioos:station:TABS:X:1,2017-08-02T16:30:00Z,27.0660,-96.3383,2.0,169.0379694,20.98285252,-99999.0,'11111222,11111222,99999999' 
TABS,ioos:station:TABS:X:1,2017-08-02T17:00:00Z,27.0660,-96.3383,2.0,163.706751,17.43000287,-99999.0,'11111222,11111222,99999999' 
TABS,ioos:station:TABS:X:1,2017-08-02T17:30:00Z,27.0660,-96.3383,2.0,170.4103519,28.15339589,-99999.0,'11111222,11111222,99999999' 
TABS,ioos:station:TABS:X:1,2017-08-02T18:00:00Z,27.0660,-96.3383,2.0,180.6023914,24.72136728,-99999.0,'11111222,11111222,99999999' 
TABS,ioos:station:TABS:X:1,2017-08-02T18:30:00Z,27.0660,-96.3383,2.0,181.8445637,26.0935241,-99999.0,'11111222,11111222,99999999' 
TABS,ioos:station:TABS:X:1,2017-08-02T19:00:00Z,27.0660,-96.3383,2.0,181.9184557,28.07574042,-99999.0,'11111222,11111222,99999999' 
TABS,ioos:station:TABS:X:1,2017-08-02T19:30:00Z,27.0660,-96.3383,2.0,183.7279771,31.06574319,-99999.0,'11111222,11111222,99999999' 
TABS,ioos:station:TABS:X:1,2017-08-02T20:00:00Z,27.0660,-96.3383,2.0,180.2159305,31.81022634,-99999.0,'11111222,11111222,99999999' 
TABS,ioos:station:TABS:X:1,2017-08-02T20:30:00Z,27.0660,-96.3383,2.0,183.5843408,26.07100497,-99999.0,'11111222,11111222,99999999' 
TABS,ioos:station:TABS:X:1,2017-08-02T21:00:00Z,27.0660,-96.3383,2.0,177.58974,24.73187619,-99999.0,'11111222,11111222,99999999' 
TABS,ioos:station:TABS:X:1,2017-08-02T21:30:00Z,27.0660,-96.3383,2.0,173.6175108,25.54834045,-99999.0,'11111222,11111222,99999999' 
TABS,ioos:station:TABS:X:1,2017-08-02T22:00:00Z,27.0660,-96.3383,2.0,173.5147891,26.65052532,-99999.0,'11111222,11111222,99999999' 
TABS,ioos:station:TABS:X:1,2017-08-02T22:30:00Z,27.0660,-96.3383,2.0,169.0966998,27.06863129,-99999.0,'11111222,11111222,99999999' 
TABS,ioos:station:TABS:X:1,2017-08-02T23:00:00Z,27.0660,-96.3383,2.0,185.2597995,28.46988936,-99999.0,'11111222,11111222,99999999' 
TABS,ioos:station:TABS:X:1,2017-08-02T23:30:00Z,27.0660,-96.3383,2.0,204.6129165,27.17952354,-99999.0,'11111222,11111222,99999999' 
TABS,ioos:station:TABS:X:1,2017-08-03T00:00:00Z,27.0660,-96.3383,2.0,215.1056325,30.08225557,-99999.0,'11111222,11111222,99999999' 
TABS,ioos:station:TABS:X:1,2017-08-03T00:30:00Z,27.0660,-96.3383,2.0,218.8837013,29.13600007,-99999.0,'11111222,11111222,99999999' 
TABS,ioos:station:TABS:X:1,2017-08-03T01:00:00Z,27.0660,-96.3383,2.0,221.2700163,30.65436347,-99999.0,'11111222,11111222,99999999' 
TABS,ioos:station:TABS:X:1,2017-08-03T01:30:00Z,27.0660,-96.3383,2.0,218.645068,30.98487534,-99999.0,'11111222,11111222,99999999' 
TABS,ioos:station:TABS:X:1,2017-08-03T02:00:00Z,27.0660,-96.3383,2.0,217.8715904,32.48096673,-99999.0,'11111222,11111222,99999999' 
TABS,ioos:station:TABS:X:1,2017-08-03T02:30:00Z,27.0660,-96.3383,2.0,218.4088868,31.41933799,-99999.0,'11111222,11111222,99999999' 
TABS,ioos:station:TABS:X:1,2017-08-03T03:00:00Z,27.0660,-96.3383,2.0,223.2330086,26.14709544,-99999.0,'11111222,11111222,99999999' 
TABS,ioos:station:TABS:X:1,2017-08-03T03:30:00Z,27.0660,-96.3383,2.0,224.4394449,21.69507317,-99999.0,'11111222,11111222,99999999' 
TABS,ioos:station:TABS:X:1,2017-08-03T04:00:00Z,27.0660,-96.3383,2.0,222.2604478,20.86227456,-99999.0,'11111222,11111222,99999999' 
TABS,ioos:station:TABS:X:1,2017-08-03T04:30:00Z,27.0660,-96.3383,2.0,219.8571513,18.38098202,-99999.0,'11111222,11111222,99999999' 
TABS,ioos:station:TABS:X:1,2017-08-03T05:00:00Z,27.0660,-96.3383,2.0,213.3363188,18.43303827,-99999.0,'11111222,11111222,99999999' 
TABS,ioos:station:TABS:X:1,2017-08-03T05:30:00Z,27.0660,-96.3383,2.0,211.466192,12.50958832,-99999.0,'11111222,11111222,99999999' 
TABS,ioos:station:TABS:X:1,2017-08-03T06:00:00Z,27.0660,-96.3383,2.0,209.7026802,13.56196151,-99999.0,'11111222,11111222,99999999' 
TABS,ioos:station:TABS:X:1,2017-08-03T06:30:00Z,27.0660,-96.3383,2.0,205.5364206,15.44924594,-99999.0,'11111222,11111222,99999999' 
TABS,ioos:station:TABS:X:1,2017-08-03T07:00:00Z,27.0660,-96.3383,2.0,188.3819577,11.25017778,-99999.0,'11111222,11111222,99999999' 
TABS,ioos:station:TABS:X:1,2017-08-03T07:30:00Z,27.0660,-96.3383,2.0,179.4674411,8.610371653,-99999.0,'11133222,11111222,99999999' 
TABS,ioos:station:TABS:X:1,2017-08-03T08:00:00Z,27.0660,-96.3383,2.0,186.2848669,8.0383145,-99999.0,'11133222,11111222,99999999' 
TABS,ioos:station:TABS:X:1,2017-08-03T08:30:00Z,27.0660,-96.3383,2.0,182.3381492,11.02918401,-99999.0,'11111222,11111222,99999999' 
TABS,ioos:station:TABS:X:1,2017-08-03T09:00:00Z,27.0660,-96.3383,2.0,173.4044859,8.184161533,-99999.0,'11133222,11111222,99999999' 
TABS,ioos:station:TABS:X:1,2017-08-03T09:30:00Z,27.0660,-96.3383,2.0,162.3368895,15.49024209,-99999.0,'11111222,11111222,99999999' 
TABS,ioos:station:TABS:X:1,2017-08-03T10:00:00Z,27.0660,-96.3383,2.0,149.6335427,14.63820003,-99999.0,'11111222,11111222,99999999' 
TABS,ioos:station:TABS:X:1,2017-08-03T10:30:00Z,27.0660,-96.3383,2.0,139.7785236,15.70285643,-99999.0,'11111222,11111222,99999999' 
TABS,ioos:station:TABS:X:1,2017-08-03T11:00:00Z,27.0660,-96.3383,2.0,149.059713,16.64908406,-99999.0,'11111222,11111222,99999999' 
TABS,ioos:station:TABS:X:1,2017-08-03T11:30:00Z,27.0660,-96.3383,2.0,142.1833594,17.19034613,-99999.0,'11111222,11111222,99999999' 
TABS,ioos:station:TABS:X:1,2017-08-03T12:00:00Z,27.0660,-96.3383,2.0,151.3204153,21.21236668,-99999.0,'11111222,11111222,99999999' 
TABS,ioos:station:TABS:X:1,2017-08-03T12:30:00Z,27.0660,-96.3383,2.0,144.8536783,23.13847013,-99999.0,'11111222,11111222,99999999' 
TABS,ioos:station:TABS:X:1,2017-08-03T13:00:00Z,27.0660,-96.3383,2.0,146.4256014,24.70085019,-99999.0,'11111222,11111222,99999999' 
TABS,ioos:station:TABS:X:1,2017-08-03T13:30:00Z,27.0660,-96.3383,2.0,143.4566421,24.9064048,-99999.0,'11111222,11111222,99999999' 
TABS,ioos:station:TABS:X:1,2017-08-03T14:00:00Z,27.0660,-96.3383,2.0,138.6746806,25.15400962,-99999.0,'11111222,11111222,99999999' 
TABS,ioos:station:TABS:X:1,2017-08-03T14:30:00Z,27.0660,-96.3383,2.0,131.9722803,25.83839198,-99999.0,'11111222,11111222,99999999' 
TABS,ioos:station:TABS:X:1,2017-08-03T15:00:00Z,27.0660,-96.3383,2.0,135.5085112,27.08325682,-99999.0,'11111222,11111222,99999999' 
TABS,ioos:station:TABS:X:1,2017-08-03T15:30:00Z,27.0660,-96.3383,2.0,134.3176471,25.53543616,-99999.0,'11111222,11111222,99999999' 
TABS,ioos:station:TABS:X:1,2017-08-03T16:00:00Z,27.0660,-96.3383,2.0,141.3858691,29.30757752,-99999.0,'11111222,11111222,99999999' 
TABS,ioos:station:TABS:X:1,2017-08-03T16:30:00Z,27.0660,-96.3383,2.0,142.4433157,29.03808534,-99999.0,'11111222,11111222,99999999' 
TABS,ioos:station:TABS:X:1,2017-08-03T17:00:00Z,27.0660,-96.3383,2.0,145.6269859,30.02250656,-99999.0,'11111222,11111222,99999999' 
TABS,ioos:station:TABS:X:1,2017-08-03T17:30:00Z,27.0660,-96.3383,2.0,147.233844,29.06452305,-99999.0,'11111222,11111222,99999999' 
TABS,ioos:station:TABS:X:1,2017-08-03T18:00:00Z,27.0660,-96.3383,2.0,149.8833499,32.12691239,-99999.0,'11111222,11111222,99999999' 
TABS,ioos:station:TABS:X:1,2017-08-03T18:30:00Z,27.0660,-96.3383,2.0,158.9518775,31.49108128,-99999.0,'11111222,11111222,99999999' 
TABS,ioos:station:TABS:X:1,2017-08-03T19:00:00Z,27.0660,-96.3383,2.0,170.6037102,38.40527308,-99999.0,'11111222,11111222,99999999' 
TABS,ioos:station:TABS:X:1,2017-08-03T19:30:00Z,27.0660,-96.3383,2.0,179.652356,36.28066703,-99999.0,'11111222,11111222,99999999' 
TABS,ioos:station:TABS:X:1,2017-08-03T20:00:00Z,27.0660,-96.3383,2.0,183.5393404,37.90230204,-99999.0,'11111222,11111222,99999999' 
TABS,ioos:station:TABS:X:1,2017-08-03T20:30:00Z,27.0660,-96.3383,2.0,188.2198122,37.83874469,-99999.0,'11111222,11111222,99999999' 
TABS,ioos:station:TABS:X:1,2017-08-03T21:00:00Z,27.0660,-96.3383,2.0,186.0129703,35.79696216,-99999.0,'11111222,11111222,99999999' 
TABS,ioos:station:TABS:X:1,2017-08-03T21:30:00Z,27.0660,-96.3383,2.0,190.7612073,34.00809609,-99999.0,'11111222,11111222,99999999' 
TABS,ioos:station:TABS:X:1,2017-08-03T22:00:00Z,27.0660,-96.3383,2.0,190.575011,34.87231567,-99999.0,'11111222,11111222,99999999' 
TABS,ioos:station:TABS:X:1,2017-08-03T22:30:00Z,27.0660,-96.3383,2.0,192.2173965,36.14873995,-99999.0,'11111222,11111222,99999999' 
TABS,ioos:station:TABS:X:1,2017-08-03T23:00:00Z,27.0660,-96.3383,2.0,198.877021,33.99866027,-99999.0,'11111222,11111222,99999999' 
TABS,ioos:station:TABS:X:1,2017-08-03T23:30:00Z,27.0660,-96.3383,2.0,206.9383156,35.67051443,-99999.0,'11111222,11111222,99999999' 
TABS,ioos:station:TABS:X:1,2017-08-04T00:00:00Z,27.0660,-96.3383,2.0,206.8277638,36.05026768,-99999.0,'11111222,11111222,99999999' 
TABS,ioos:station:TABS:X:1,2017-08-04T00:30:00Z,27.0660,-96.3383,2.0,206.5494158,33.35766329,-99999.0,'11111222,11111222,99999999' 
TABS,ioos:station:TABS:X:1,2017-08-04T01:00:00Z,27.0660,-96.3383,2.0,211.3399592,31.31974776,-99999.0,'11111222,11111222,99999999' 
TABS,ioos:station:TABS:X:1,2017-08-04T01:30:00Z,27.0660,-96.3383,2.0,202.405146,25.89479677,-99999.0,'11111222,11111222,99999999' 
TABS,ioos:station:TABS:X:1,2017-08-04T02:00:00Z,27.0660,-96.3383,2.0,204.5123156,20.72823196,-99999.0,'11111222,11111222,99999999' 
TABS,ioos:station:TABS:X:1,2017-08-04T02:30:00Z,27.0660,-96.3383,2.0,214.3458066,18.89432719,-99999.0,'11111222,11111222,99999999' 
TABS,ioos:station:TABS:X:1,2017-08-04T03:00:00Z,27.0660,-96.3383,2.0,208.4644353,13.49090434,-99999.0,'11111222,11111222,99999999' 
TABS,ioos:station:TABS:X:1,2017-08-04T03:30:00Z,27.0660,-96.3383,2.0,214.9507268,13.73770359,-99999.0,'11111222,11111222,99999999' 
TABS,ioos:station:TABS:X:1,2017-08-04T04:00:00Z,27.0660,-96.3383,2.0,206.4609823,4.937246196,-99999.0,'11133222,11111222,99999999' 
TABS,ioos:station:TABS:X:1,2017-08-04T04:30:00Z,27.0660,-96.3383,2.0,162.3580636,2.969663281,-99999.0,'11133222,11111222,99999999' 
TABS,ioos:station:TABS:X:1,2017-08-04T05:00:00Z,27.0660,-96.3383,2.0,141.8778137,1.830437106,-99999.0,'11133222,11111222,99999999' 
TABS,ioos:station:TABS:X:1,2017-08-04T05:30:00Z,27.0660,-96.3383,2.0,171.7782284,5.314621341,-99999.0,'11133222,11111222,99999999' 
TABS,ioos:station:TABS:X:1,2017-08-04T06:00:00Z,27.0660,-96.3383,2.0,153.8313038,6.462391198,-99999.0,'11133222,11111222,99999999' 
TABS,ioos:station:TABS:X:1,2017-08-04T06:30:00Z,27.0660,-96.3383,2.0,142.0726532,7.69531026,-99999.0,'11133222,11111222,99999999' 
TABS,ioos:station:TABS:X:1,2017-08-04T07:00:00Z,27.0660,-96.3383,2.0,134.9998948,6.957930727,-99999.0,'11133222,11111222,99999999' 
TABS,ioos:station:TABS:X:1,2017-08-04T07:30:00Z,27.0660,-96.3383,2.0,125.1126265,10.50093805,-99999.0,'11111222,11111222,99999999' 
TABS,ioos:station:TABS:X:1,2017-08-04T08:00:00Z,27.0660,-96.3383,2.0,153.708286,9.369231559,-99999.0,'11133222,11111222,99999999' 
TABS,ioos:station:TABS:X:1,2017-08-04T08:30:00Z,27.0660,-96.3383,2.0,179.9257642,7.74000646,-99999.0,'11133222,11111222,99999999' 
TABS,ioos:station:TABS:X:1,2017-08-04T09:00:00Z,27.0660,-96.3383,2.0,176.4128158,3.356575636,-99999.0,'11133222,11111222,99999999' 
TABS,ioos:station:TABS:X:1,2017-08-04T09:30:00Z,27.0660,-96.3383,2.0,153.4348005,6.864728691,-99999.0,'11133222,11111222,99999999' 
TABS,ioos:station:TABS:X:1,2017-08-04T10:00:00Z,27.0660,-96.3383,2.0,161.6982326,4.076186944,-99999.0,'11133222,11111222,99999999' 
TABS,ioos:station:TABS:X:1,2017-08-04T10:30:00Z,27.0660,-96.3383,2.0,158.956224,6.739473273,-99999.0,'11133222,11111222,99999999' 
TABS,ioos:station:TABS:X:1,2017-08-04T11:00:00Z,27.0660,-96.3383,2.0,142.7484752,6.608146487,-99999.0,'11133222,11111222,99999999' 
TABS,ioos:station:TABS:X:1,2017-08-04T11:30:00Z,27.0660,-96.3383,2.0,174.5323245,15.00828105,-99999.0,'11111222,11111222,99999999' 
TABS,ioos:station:TABS:X:1,2017-08-04T12:00:00Z,27.0660,-96.3383,2.0,124.4058914,23.30754813,-99999.0,'11111222,11111222,99999999' 
TABS,ioos:station:TABS:X:1,2017-08-04T12:30:00Z,27.0660,-96.3383,2.0,141.4677261,29.44038892,-99999.0,'11111222,11111222,99999999' 
TABS,ioos:station:TABS:X:1,2017-08-04T13:00:00Z,27.0660,-96.3383,2.0,154.0519649,34.87573942,-99999.0,'11111222,11111222,99999999' 
TABS,ioos:station:TABS:X:1,2017-08-04T13:30:00Z,27.0660,-96.3383,2.0,152.3392168,34.61618841,-99999.0,'11111222,11111222,99999999' 
TABS,ioos:station:TABS:X:1,2017-08-04T14:00:00Z,27.0660,-96.3383,2.0,159.9745599,37.1457723,-99999.0,'11111222,11111222,99999999' 
TABS,ioos:station:TABS:X:1,2017-08-04T14:30:00Z,27.0660,-96.3383,2.0,166.1026457,45.96548705,-99999.0,'11111222,11111222,99999999' 
TABS,ioos:station:TABS:X:1,2017-08-04T15:00:00Z,27.0660,-96.3383,2.0,170.6418713,46.92448082,-99999.0,'11111222,11111222,99999999' 
TABS,ioos:station:TABS:X:1,2017-08-04T15:30:00Z,27.0660,-96.3383,2.0,178.818857,46.57989373,-99999.0,'11111222,11111222,99999999' 
TABS,ioos:station:TABS:X:1,2017-08-04T16:00:00Z,27.0660,-96.3383,2.0,186.4135923,47.2658365,-99999.0,'11111222,11111222,99999999' 
TABS,ioos:station:TABS:X:1,2017-08-04T16:30:00Z,27.0660,-96.3383,2.0,191.0043839,43.42857354,-99999.0,'11111222,11111222,99999999' 
TABS,ioos:station:TABS:X:1,2017-08-04T17:00:00Z,27.0660,-96.3383,2.0,196.1420772,43.16169135,-99999.0,'11111222,11111222,99999999' 
TABS,ioos:station:TABS:X:1,2017-08-04T17:30:00Z,27.0660,-96.3383,2.0,204.5389451,45.79646275,-99999.0,'11111222,11111222,99999999' 
TABS,ioos:station:TABS:X:1,2017-08-04T18:00:00Z,27.0660,-96.3383,2.0,207.503217,44.7810317,-99999.0,'11111222,11111222,99999999' 